Vorticity
5 11 8 13 3 3 2 4 4 3 4 4 3 3 4 4 3 5 5 3 2 2 2 4 5 2 5 17 -4 15 10 13 7 4 7 2 2 1 9 3 8 9 9 16 9 10 6 14 9 11 10 13 13 15
2 9 9 12 9 8 3 4 4 3 3 5 3 4 5 6 6 7 5 3 6 5 1 7 5 6 13 11 14 15 10 3 6 2 3 3 4 3 2 5 14 10 12 12 6 11 6 7 9 8 13 13 15 19
11 11 6 0 5 16 12 8 4 4 7 6 4 6 6 1 -2 4 8 9 14 13 15 5 13 9 17 12 12 12 4 2 1 6 2 -3 4 6 8 6 12 20 13 10 13 5 6 8 10 12 12 18 20 18
12 9 11 10 11 8 -5 5 10 8 -2 3 12 4 3 8 7 7 12 5 6 10 -1 6 12 3 15 13 5 11 7 3 9 6 3 11 16 10 6 6 27 14 13 3 8 8 9 12 11 13 21 20 17 17
7 11 11 10 6 -1 4 -3 -5 3 -2 -1 16 9 0 -5 16 11 -2 -16 6 27 11 14 10 3 6 14 6 9 7 5 10 12 8 11 7 17 13 27 22 7 5 7 7 9 10 11 15 21 18 14 12 10
3 5 12 7 10 12 18 13 6 14 16 13 -6 18 8 4 5 7 18 14 30 14 5 6 10 9 6 9 7 7 16 22 13 1 -4 5 26 31 17 5 11 6 11 6 8 12 10 15 21 15 9 9 12 16
21 19 -5 13 1 5 6 10 12 8 5 8 15 4 9 9 7 3 0 14 9 7 8 -7 12 7 16 13 17 15 6 3 6 15 33 30 13 4 9 17 8 8 7 12 13 10 16 20 12 10 9 16 20 19
-16 4 30 -7 -4 12 5 4 -2 6 6 5 9 6 14 6 0 0 3 10 -3 -1 3 -4 3 11 6 6 14 15 14 14 14 13 14 6 9 10 14 9 6 10 11 10 12 16 19 10 11 13 17 20 17 13
5 4 6 15 14 -1 9 16 6 -1 0 7 4 4 -7 12 12 17 15 12 10 14 15 14 15 17 22 24 28 22 11 14 6 12 11 12 6 16 9 10 12 8 10 14 17 17 10 11 15 19 20 15 10 8
15 16 11 13 10 12 14 1 20 17 5 5 1 16 20 21 19 8 14 24 21 11 9 20 26 24 20 6 15 10 8 5 10 8 9 10 16 11 11 8 8 14 16 18 13 11 13 17 19 16 12 10 10 10
7 16 20 13 14 18 15 14 2 2 12 17 18 14 -3 -2 -1 17 17 4 -4 5 5 2 10 14 14 16 17 12 11 10 10 8 13 16 25 10 8 11 15 16 14 10 10 12 16 19 13 10 10 10 7 6
21 12 10 19 15 8 15 26 13 18 17 12 -4 2 8 16 17 -2 -25 -20 -5 1 1 8 13 12 13 11 11 8 8 8 16 24 16 16 10 9 14 16 15 9 8 14 14 18 16 11 11 10 8 6 5 3
23 24 14 12 18 11 4 13 19 14 12 13 11 15 14 17 11 1 7 18 11 5 9 17 12 12 19 13 10 13 15 19 16 14 11 14 9 15 17 12 7 9 11 17 20 14 13 12 9 7 4 3 1 2
24 22 22 14 16 14 11 13 17 15 1 15 14 14 15 9 13 17 14 17 23 21 19 13 9 10 7 9 9 13 14 14 9 10 16 14 18 13 8 11 7 10 16 19 14 12 9 10 3 2 0 0 6 9
16 25 21 20 18 17 16 15 17 21 20 17 15 6 4 6 16 14 13 18 23 16 13 13 16 13 9 14 5 16 13 10 15 20 11 15 9 7 8 9 11 19 22 15 10 9 7 2 0 2 5 8 13 15
8 12 18 22 23 20 12 13 14 14 18 19 16 11 15 17 12 11 10 16 12 16 19 22 19 15 13 20 21 14 15 21 12 10 9 9 9 9 8 16 23 19 13 9 8 3 1 1 5 8 11 14 17 22
8 16 13 18 13 19 19 16 15 14 12 10 7 20 19 22 27 29 31 23 19 6 -4 13 15 22 18 12 18 27 19 12 11 7 13 13 11 13 18 22 15 11 9 4 3 2 3 8 9 11 15 20 23 22
14 8 8 4 13 13 11 8 -2 5 13 14 14 15 16 13 8 4 8 39 -8 15 14 16 0 7 19 24 10 4 9 3 3 3 6 10 14 23 19 13 9 7 4 3 2 7 7 7 13 18 23 23 20 21
13 10 11 14 13 11 6 6 6 12 21 14 18 15 18 15 31 5 -5 2 5 20 -7 25 3 2 10 5 -1 -2 -1 4 -0 2 6 13 25 17 13 8 7 2 1 5 6 8 9 14 20 23 23 20 20 21
0 2 5 9 11 10 10 12 19 23 14 19 20 20 15 15 15 20 1 12 -7 3 17 9 19 -14 10 16 4 -11 4 2 -9 -8 17 23 16 12 8 6 1 3 7 5 7 10 16 21 23 23 20 20 18 13
24 17 15 15 10 12 15 23 21 18 23 15 8 13 14 12 14 28 16 -11 -14 -11 3 -9 6 14 10 3 1 14 10 1 7 18 27 18 10 8 4 2 4 7 6 8 11 17 21 22 23 22 19 15 13 12
11 10 6 11 12 14 8 10 10 13 13 23 15 21 18 13 -3 14 17 36 43 31 21 8 15 11 3 4 7 0 6 14 19 23 18 11 6 4 3 6 7 6 9 13 19 20 20 23 24 19 15 13 12 11
15 4 23 5 -5 14 29 20 28 9 23 22 17 11 9 12 9 10 25 8 4 -7 -12 10 17 10 3 0 7 14 18 23 22 15 8 4 3 4 6 7 8 11 16 20 20 17 22 24 19 16 14 13 12 14
-5 4 3 6 3 16 10 -0 19 23 -16 -14 -3 6 18 13 1 1 8 10 10 13 16 5 2 -0 -2 1 18 24 26 19 11 7 5 5 6 7 8 10 14 18 19 19 16 16 23 19 15 13 12 12 12 15
22 6 11 1 10 -6 -7 6 28 6 -4 -4 8 -11 -15 12 12 11 9 9 5 1 1 2 2 5 12 26 29 23 14 8 4 4 6 7 7 10 14 14 19 19 18 15 15 17 20 16 12 13 10 13 13 15
12 21 27 14 6 6 1 3 9 5 5 5 9 -6 10 12 16 14 12 11 13 14 16 17 23 26 23 18 13 8 4 5 7 8 7 9 13 15 22 21 18 16 16 15 15 17 18 14 11 12 11 10 11 13
12 11 8 14 14 13 16 25 21 8 7 12 22 26 18 10 7 7 12 15 21 23 21 17 14 12 9 7 6 6 7 8 7 7 10 14 23 25 17 15 16 16 16 18 18 17 17 15 13 11 11 11 10 9
20 21 20 22 18 16 14 16 16 15 23 24 26 26 24 24 22 20 18 16 14 12 10 8 7 7 7 8 9 8 7 8 10 13 18 27 27 15 13 15 16 18 18 18 18 18 18 19 21 21 17 13 10 10
11 12 14 14 14 13 12 15 13 11 10 11 11 10 11 10 7 7 6 6 6 8 9 8 7 7 8 7 7 9 11 14 18 22 27 28 16 9 11 13 10 10 11 11 10 9 9 8 6 6 9 17 23 22
12 14 14 14 14 14 14 14 14 14 13 12 11 11 10 10 10 9 8 6 5 6 7 8 7 8 10 13 16 21 22 23 23 22 25 22 11 6 3 3 5 6 1 -0 0 0 -1 -1 2 7 3 3 6 5
13 13 12 11 11 11 10 11 10 10 10 9 8 7 7 7 6 7 6 6 6 8 11 14 18 19 21 22 22 21 20 20 21 19 21 19 13 5 4 4 3 -0 0 3 5 3 0 -0 0 5 0 6 12 13
11 10 11 11 9 9 9 9 9 8 6 6 6 7 7 6 7 8 10 13 15 17 18 20 21 20 21 19 18 18 17 16 17 18 18 19 16 14 9 6 4 1 3 3 5 4 7 2 5 2 7 15 17 16
8 6 5 5 6 7 6 6 6 7 6 6 6 7 9 10 14 18 22 21 21 22 23 24 26 24 22 21 20 18 18 18 18 18 17 17 17 16 14 12 10 8 8 8 8 7 6 5 5 13 17 15 14 13
Height
5650 5658 5666 5673 5681 5687 5694 5702 5709 5716 5722 5726 5730 5733 5737 5740 5741 5742 5746 5747 5746 5745 5745 5746 5745 5743 5742 5738 5735 5732 5728 5725 5720 5717 5714 5710 5704 5699 5695 5689 5683 5675 5668 5662 5652 5642 5638 5629 5622 5614 5604 5594 5585 5577
5633 5643 5651 5658 5666 5672 5679 5687 5694 5701 5708 5713 5717 5720 5723 5726 5727 5730 5731 5733 5732 5732 5734 5733 5732 5730 5728 5724 5721 5717 5714 5710 5707 5704 5700 5696 5691 5686 5683 5678 5673 5666 5661 5650 5643 5634 5625 5616 5608 5599 5591 5582 5574 5565
5615 5626 5635 5643 5651 5658 5664 5671 5678 5686 5692 5698 5702 5707 5711 5715 5717 5717 5718 5719 5719 5720 5720 5720 5720 5718 5715 5712 5708 5705 5701 5697 5696 5692 5688 5683 5678 5673 5670 5666 5660 5656 5647 5638 5630 5629 5616 5607 5598 5589 5580 5571 5562 5556
5600 5608 5619 5628 5635 5644 5650 5656 5663 5670 5676 5681 5686 5690 5693 5698 5702 5705 5707 5708 5708 5708 5707 5709 5707 5705 5703 5698 5694 5691 5688 5685 5683 5679 5675 5670 5665 5660 5658 5652 5648 5643 5633 5624 5620 5614 5605 5597 5587 5578 5569 5561 5554 5546
5586 5594 5602 5612 5618 5626 5633 5640 5647 5654 5661 5667 5671 5676 5679 5682 5683 5687 5690 5692 5693 5693 5692 5694 5694 5692 5689 5684 5680 5677 5674 5671 5669 5666 5662 5659 5654 5646 5642 5639 5639 5628 5619 5612 5606 5600 5591 5583 5576 5568 5560 5553 5545 5538
5568 5579 5589 5595 5603 5609 5617 5624 5631 5637 5643 5649 5655 5661 5664 5666 5668 5671 5672 5674 5675 5674 5675 5678 5680 5678 5673 5668 5664 5661 5658 5657 5654 5651 5649 5644 5639 5631 5626 5628 5624 5613 5606 5600 5594 5585 5578 5571 5564 5556 5550 5544 5537 5531
5552 5563 5576 5581 5587 5595 5602 5607 5615 5622 5628 5632 5638 5642 5646 5649 5653 5656 5658 5660 5659 5659 5660 5661 5664 5664 5658 5653 5650 5647 5644 5642 5640 5637 5634 5629 5625 5619 5615 5613 5605 5600 5594 5588 5580 5573 5566 5559 5554 5547 5541 5534 5528 5522
5537 5546 5557 5567 5573 5580 5587 5594 5599 5604 5611 5616 5622 5625 5628 5631 5634 5638 5640 5644 5645 5647 5648 5647 5650 5649 5643 5637 5635 5632 5629 5626 5625 5622 5620 5617 5611 5607 5603 5598 5591 5586 5581 5575 5568 5561 5555 5549 5543 5537 5531 5525 5520 5515
5519 5529 5539 5548 5557 5564 5571 5577 5585 5591 5595 5599 5604 5609 5614 5615 5618 5622 5623 5625 5629 5633 5632 5635 5636 5633 5628 5621 5618 5617 5614 5613 5610 5610 5607 5602 5601 5596 5588 5583 5578 5573 5567 5562 5557 5551 5544 5539 5533 5526 5522 5517 5513 5507
5500 5512 5521 5532 5540 5547 5554 5560 5568 5575 5581 5585 5588 5591 5597 5602 5602 5604 5604 5607 5612 5616 5619 5621 5619 5616 5612 5607 5604 5603 5600 5599 5597 5599 5593 5592 5589 5581 5574 5569 5566 5561 5555 5550 5544 5542 5534 5528 5523 5517 5513 5509 5505 5499
5485 5495 5504 5515 5524 5529 5535 5542 5551 5559 5562 5568 5573 5579 5581 5583 5582 5584 5588 5595 5598 5601 5604 5607 5605 5599 5596 5595 5592 5589 5586 5584 5583 5586 5581 5578 5578 5568 5563 5558 5553 5550 5545 5539 5534 5530 5524 5519 5515 5510 5505 5501 5496 5490
5471 5482 5491 5500 5507 5514 5519 5524 5535 5541 5547 5551 5554 5556 5558 5561 5563 5569 5577 5581 5585 5589 5594 5594 5588 5582 5580 5579 5577 5575 5574 5571 5570 5570 5567 5566 5564 5556 5553 5547 5542 5539 5534 5529 5524 5519 5515 5510 5507 5502 5497 5492 5486 5480
5462 5470 5480 5489 5496 5505 5506 5511 5517 5524 5530 5534 5536 5538 5538 5540 5545 5556 5566 5569 5573 5574 5575 5571 5569 5569 5567 5567 5563 5562 5560 5559 5558 5557 5556 5555 5549 5546 5543 5537 5532 5528 5525 5519 5515 5510 5506 5502 5499 5494 5488 5482 5475 5468
5456 5462 5470 5479 5488 5495 5498 5499 5507 5513 5517 5519 5521 5525 5523 5530 5536 5547 5554 5557 5558 5557 5556 5555 5556 5557 5556 5553 5552 5551 5550 5549 5547 5548 5547 5542 5539 5535 5532 5528 5522 5519 5515 5510 5506 5502 5498 5494 5490 5484 5478 5471 5463 5455
5449 5456 5463 5470 5477 5482 5487 5491 5495 5499 5503 5506 5508 5511 5516 5522 5530 5537 5543 5545 5545 5543 5544 5544 5544 5545 5544 5543 5543 5542 5540 5541 5540 5538 5536 5533 5530 5526 5522 5518 5513 5509 5507 5502 5498 5494 5490 5485 5479 5473 5467 5458 5449 5441
5445 5450 5455 5461 5466 5472 5478 5482 5485 5489 5491 5494 5495 5503 5514 5517 5521 5523 5528 5531 5533 5531 5532 5533 5534 5534 5534 5533 5535 5533 5532 5532 5529 5528 5527 5524 5521 5517 5512 5508 5504 5501 5497 5493 5490 5486 5481 5474 5468 5462 5453 5443 5435 5427
5438 5447 5452 5456 5462 5465 5469 5473 5476 5477 5481 5484 5492 5498 5502 5508 5511 5513 5516 5519 5520 5523 5525 5524 5525 5526 5525 5524 5525 5523 5523 5522 5521 5519 5517 5514 5511 5507 5503 5499 5496 5492 5488 5485 5481 5476 5469 5463 5456 5447 5438 5430 5423 5416
5439 5443 5446 5449 5455 5459 5463 5466 5468 5469 5475 5481 5486 5492 5495 5500 5504 5506 5510 5512 5513 5515 5516 5516 5519 5519 5518 5518 5517 5516 5514 5515 5512 5510 5507 5504 5501 5497 5493 5490 5487 5484 5481 5477 5471 5465 5458 5451 5443 5434 5426 5420 5414 5408
5435 5438 5442 5447 5451 5455 5456 5459 5461 5464 5469 5474 5479 5484 5487 5490 5494 5498 5500 5504 5506 5509 5508 5507 5511 5512 5511 5511 5510 5508 5507 5506 5503 5501 5498 5495 5491 5487 5484 5481 5479 5476 5472 5466 5459 5453 5446 5438 5430 5423 5417 5412 5407 5402
5430 5434 5438 5442 5445 5447 5450 5452 5457 5458 5463 5469 5472 5476 5479 5481 5484 5487 5491 5494 5495 5496 5500 5502 5503 5503 5503 5502 5501 5500 5498 5496 5494 5492 5488 5484 5481 5478 5476 5473 5470 5466 5460 5454 5448 5442 5435 5427 5420 5415 5410 5405 5402 5398
5426 5429 5435 5438 5440 5443 5445 5448 5451 5455 5458 5461 5465 5468 5471 5473 5476 5479 5482 5485 5486 5489 5491 5493 5494 5494 5493 5493 5492 5491 5489 5487 5484 5481 5478 5474 5472 5470 5467 5464 5460 5455 5449 5443 5437 5430 5423 5417 5412 5408 5404 5400 5397 5393
5426 5429 5433 5435 5437 5440 5442 5446 5449 5453 5456 5459 5461 5464 5467 5470 5472 5475 5476 5476 5477 5480 5483 5484 5484 5484 5483 5483 5482 5480 5478 5476 5473 5470 5467 5465 5464 5461 5458 5454 5449 5443 5438 5432 5426 5420 5415 5410 5405 5402 5399 5395 5392 5389
5425 5428 5430 5432 5435 5438 5442 5444 5447 5450 5452 5455 5457 5460 5462 5464 5466 5466 5467 5470 5471 5473 5475 5475 5474 5473 5473 5473 5472 5470 5468 5465 5462 5460 5458 5456 5454 5451 5447 5442 5437 5432 5427 5421 5417 5412 5407 5403 5400 5397 5394 5391 5388 5385
5424 5427 5430 5431 5432 5435 5438 5441 5444 5447 5450 5452 5454 5456 5457 5458 5459 5460 5462 5463 5464 5465 5464 5464 5464 5464 5464 5463 5461 5459 5457 5455 5453 5451 5449 5446 5443 5440 5435 5431 5426 5421 5417 5413 5409 5405 5400 5397 5394 5392 5389 5387 5384 5382
5424 5426 5428 5428 5430 5432 5434 5437 5440 5443 5445 5447 5447 5449 5450 5451 5451 5452 5453 5453 5453 5454 5455 5455 5455 5455 5453 5451 5450 5448 5447 5446 5444 5441 5438 5435 5432 5428 5424 5420 5416 5413 5409 5406 5402 5398 5395 5392 5389 5387 5385 5383 5381 5379
5420 5422 5424 5426 5428 5430 5432 5434 5435 5437 5439 5441 5443 5445 5445 5445 5444 5444 5445 5445 5446 5446 5446 5445 5445 5444 5443 5442 5440 5439 5438 5435 5433 5430 5427 5423 5420 5417 5413 5411 5408 5405 5402 5398 5395 5392 5389 5387 5385 5383 5381 5379 5377 5376
5420 5421 5423 5424 5426 5428 5429 5430 5431 5433 5435 5436 5437 5437 5437 5437 5437 5438 5437 5437 5437 5437 5437 5436 5436 5435 5434 5433 5431 5429 5427 5424 5421 5419 5415 5412 5409 5407 5405 5403 5400 5398 5395 5392 5389 5386 5384 5382 5380 5379 5377 5375 5374 5372
5418 5419 5420 5422 5423 5424 5425 5426 5428 5429 5429 5430 5431 5430 5430 5431 5431 5431 5431 5431 5430 5430 5429 5429 5427 5426 5424 5422 5420 5418 5415 5413 5410 5407 5404 5401 5399 5399 5397 5395 5394 5391 5389 5386 5384 5382 5380 5378 5376 5374 5373 5371 5369 5368
5419 5419 5420 5420 5421 5421 5422 5423 5424 5424 5425 5425 5425 5425 5426 5426 5426 5425 5425 5424 5423 5422 5420 5419 5417 5415 5413 5411 5409 5406 5403 5400 5397 5394 5392 5391 5391 5391 5390 5389 5388 5386 5384 5383 5381 5379 5377 5375 5373 5371 5369 5367 5364 5363
5418 5419 5419 5419 5420 5420 5421 5422 5422 5422 5422 5422 5422 5421 5421 5420 5419 5418 5417 5415 5413 5412 5410 5408 5406 5403 5400 5398 5395 5392 5389 5387 5384 5383 5382 5383 5384 5384 5383 5383 5382 5380 5379 5378 5376 5374 5372 5370 5368 5366 5364 5362 5360 5358
5418 5418 5418 5418 5418 5418 5418 5417 5417 5417 5416 5416 5415 5415 5414 5413 5411 5409 5408 5405 5403 5401 5398 5395 5392 5389 5386 5384 5381 5379 5377 5376 5375 5374 5374 5375 5375 5376 5376 5375 5374 5373 5372 5370 5369 5367 5365 5363 5361 5359 5356 5354 5351 5349
5417 5417 5416 5416 5415 5415 5414 5414 5413 5412 5411 5410 5409 5408 5406 5404 5401 5399 5396 5393 5390 5387 5384 5381 5378 5376 5374 5372 5370 5369 5368 5367 5366 5366 5366 5366 5366 5367 5367 5367 5366 5365 5364 5362 5360 5358 5356 5354 5351 5348 5346 5343 5340 5338
5415 5414 5413 5413 5412 5411 5410 5409 5407 5406 5404 5402 5400 5398 5395 5393 5390 5387 5384 5380 5378 5375 5372 5370 5367 5365 5364 5363 5362 5361 5360 5360 5359 5359 5359 5359 5359 5358 5358 5358 5357 5356 5354 5352 5350 5348 5345 5342 5338 5335 5332 5329 5327 5325